Regional Weather Roundup
Issued by NWS

Home | Current Version | Previous Version | Text Only | Print | Product List | Glossary Off
Versions: 1 2 3 4 5 6 7 8 9 10 11 12 13 14 15 16 17 18 19 20 21 22 23 24 25 26 27

000
ASUS45 KBOU 240110
RWRCO

WEATHER ROUNDUP FOR COLORADO
NATIONAL WEATHER SERVICE DENVER/BOULDER CO
700 PM MDT FRI SEP 23 2016

NOTE: "FAIR" INDICATES FEW OR NO CLOUDS BELOW 12000 FEET WITH NO
SIGNIFICANT WEATHER AND/OR OBSTRUCTIONS TO VISIBILITY.

COZ001>005-013-030-031-240200-
...NORTHWEST COLORADO...

CITY           SKY/WX    TMP DP  RH WIND       PRES   REMARKS
CRAIG          FAIR      45  36  70 NW7       30.05R
HAYDEN         MOCLDY    45  32  61 NE7       30.05S
MEEKER         FAIR      49  33  54 SW6       30.03F
MOUNT WERNER   NOT AVBL
STEAMBOAT SPGS CLOUDY    45  30  56 E3        30.06S
WALDEN           N/A     37  28  70 E8        30.10S
$$

COZ006>008-011-240200-
...WEST CENTRAL VALLEYS...

CITY           SKY/WX    TMP DP  RH WIND       PRES   REMARKS
GRAND JUNCTION CLOUDY    50  37  61 SW10      30.07R
MONTROSE       MOCLDY    50  34  54 W7        30.09R
EAGLE          MOCLDY    45  37  76 W7        30.07F
RIFLE          RAIN      47  39  74 W8        30.07R
DELTA          NOT AVBL
NUCLA          MOCLDY    50  34  53 NE16G22   30.11R
$$

COZ017>023-064>068-240200-
...SOUTHWEST COLORADO...

CITY           SKY/WX    TMP DP  RH WIND       PRES   REMARKS
DURANGO        FAIR      42  35  76 N12       30.16S
CORTEZ         FAIR      48  41  76 N5        30.09S
PAGOSA SPRINGS MOCLDY    39  37  95 NW3       30.19S
TELLURIDE      CLOUDY    36  30  79 SE7       30.22S
WOLF CREEK PAS FOG       23  23 100 MISG      30.25F VSB<1/4
$$

COZ009-010-012-014-032>034-037-058>063-240200-
...CENTRAL COLORADO...

CITY           SKY/WX    TMP DP  RH WIND       PRES   REMARKS
ASPEN          FAIR      41  32  70 S8        30.10R
BUENA VISTA    DRIZZLE   45  25  45 S12G20    30.15R
COPPER MTN     LGT SNOW  30  23  74 MISG      30.21S
BERTHOUD PASS  HAZE      23   9  54 MISG      30.20S VSB<1/4
COTTONWOOD PAS LGT SNOW  37  23  56 W6G20     30.20R
GUNNISON       FAIR      42  32  67 NE6       30.12R
KREMMLING      CLOUDY    41  32  70 E15       30.06F
LEADVILLE      CLOUDY    34  23  64 E8        30.15F WCI  27
MONARCH PASS   LGT SNOW  28  21  74 SW21      30.33R WCI  15
SALIDA         CLOUDY    47  31  55 S12G23    30.22R
SUNLIGHT       FAIR      32  28  86 MISG      30.21R
WILKERSON PASS FOG       30  28  93 SW21G35   30.12F VSB 1   WCI  17
$$

COZ069>075-240200-
...SAN LUIS VALLEY/SANGRE DE CRISTO MOUNTAINS...

CITY           SKY/WX    TMP DP  RH WIND       PRES   REMARKS
ALAMOSA        LGT RAIN  39  36  89 SE12      30.15F
LA VETA PASS   HVY SNOW  32  30  93 MISG      30.17R VSB 1/4
SAGUACHE       NOT AVBL
$$

COZ035-036-038>040-240200-
...NORTHERN COLORADO FRONT RANGE...

CITY           SKY/WX    TMP DP  RH WIND       PRES   REMARKS
DENVER INTL AP FAIR      64  38  38 NW26      29.77R
DMNS CITY PARK   N/A     68  38  32 SW2       29.80R
AURORA         PTCLDY    70  35  27 NW18G31   29.81R
FRONT RANGE AP MOCLDY    75  36  23 NW23G35   29.76R
ERIE MUNI ARPT FAIR      64  38  37 NE3       29.77R
BOULDER MUN AP FAIR      68  32  26 W15G25    29.75R
CENTENNIAL     FAIR      66  34  30 SW25G33   29.80R
BROOMFIELD     MOCLDY    68  39  34 NE12      29.79R
FORT COLLINS   FAIR      64  36  34 N9        29.75R
LONGMONT       FAIR      68  39  34 SE3       29.78R
$$

COZ041-046-047-076>085-087-088-240200-
...PIKES PEAK/PALMER DIVIDE AND SOUTHERN FOOTHILLS...

CITY           SKY/WX    TMP DP  RH WIND       PRES   REMARKS
COLO. SPRINGS  FAIR      72  28  19 SW22G35   29.82R
A. F. ACADEMY  FAIR      58  33  37 W21G32    29.85R
SCHRIEVER AFB  NOT AVBL
ELLICOTT       FAIR     N/A N/A N/A SW17G32   29.83R
FALCON         FAIR      67  28  23 SW14      29.87R
FORT CARSON    MOCLDY    70  32  24 SW26G36   29.79R
LIMON          FAIR      77  43  29 S21G36    29.77R
MONUMENT HILL  FAIR      55  32  41 W24G30    29.90R
TRINIDAD       FAIR      75  20  12 S26G35    29.85R
$$

COZ042>045-048>051-090-091-240200-
...NORTHEAST COLORADO...

CITY           SKY/WX    TMP DP  RH WIND       PRES   REMARKS
GREELEY ARPT   FAIR      63  36  36 N16G24    29.76R
AKRON          FAIR      80  50  34 SE30G39   29.74R
BURLINGTON     FAIR      78  54  43 SE30G40   29.79R
WRAY           NOT AVBL
STERLING       FAIR      82  54  36 S21G32    29.68R
HOLYOKE        FAIR      81  52  36 SE17G28   29.75R
FORT MORGAN    FAIR      82  38  20 SE9G22    29.70R
$$

COZ086-089-092>099-240200-
...SOUTHEAST COLORADO...

CITY           SKY/WX    TMP DP  RH WIND       PRES   REMARKS
PUEBLO         FAIR      71  35  26 W30G45    29.79R
LA JUNTA       FAIR      83  50  31 SE22G31   29.74R
LAMAR          LGT RAIN  82  52  35 S15G23    29.75R
SPRINGFIELD    NOT AVBL
$$




USA.gov is the U.S. government's official web portal to all federal, state and local government web resources and services.